This is the latest recevied weather packets stored in our database for station/object WX5RP. If no packets are shown the sender has not sent any weather packets the latest 10 day(s).
| Time | Temp. | Humidity | Pressure | Rain* | Wind** | Luminosity | Snow |
|---|---|---|---|---|---|---|---|
| 1777591516 | 21.11° C | 22% | 1018.2 hPa | 0 mm | - | 604 W/m² | - |
| 1777590916 | 20.56° C | 23% | 1017.9 hPa | 0 mm | - | 743 W/m² | - |
| 1777590315 | 21.67° C | 24% | 1018.2 hPa | 0 mm | - | 737 W/m² | - |
| 1777589715 | 21.11° C | 22% | 1018.2 hPa | 0 mm | - | 766 W/m² | - |
| 1777589116 | 21.11° C | 24% | 1018.2 hPa | 0 mm | - | 746 W/m² | - |
| 1777588515 | 21.11° C | 23% | 1018.9 hPa | 0 mm | - | 686 W/m² | - |
| 1777587915 | 20.56° C | 23% | 1019.1 hPa | 0 mm | - | 790 W/m² | - |
| 1777587315 | 20.56° C | 22% | 1018.8 hPa | 0 mm | - | 900 W/m² | - |
| 1777586715 | 20.56° C | 22% | 1018.8 hPa | 0 mm | - | 843 W/m² | - |
| 1777586116 | 21.11° C | 23% | 1018.8 hPa | 0 mm | - | 788 W/m² | - |
| 1777585515 | 20.56° C | 22% | 1018.8 hPa | 0 mm | - | 883 W/m² | - |
| 1777584915 | 20.56° C | 23% | 1018.8 hPa | 0 mm | - | 188 W/m² | - |
| 1777584315 | 20° C | 23% | 1019.2 hPa | 0 mm | - | 965 W/m² | - |
| 1777583715 | 20° C | 22% | 1019.4 hPa | 0 mm | - | 683 W/m² | - |
| 1777583115 | 20° C | 24% | 1019.1 hPa | 0 mm | - | 677 W/m² | - |
| 1777582517 | 19.44° C | 25% | 1019 hPa | 0 mm | - | 955 W/m² | - |
| 1777581917 | 20.56° C | 23% | 1019.3 hPa | 0 mm | - | 990 W/m² | - |
| 1777581317 | 19.44° C | 23% | 1019.3 hPa | 0 mm | - | 953 W/m² | - |
| 1777580717 | 18.89° C | 23% | 1019.3 hPa | 0 mm | - | 888 W/m² | - |
| 1777580117 | 18.33° C | 24% | 1019.3 hPa | 0 mm | - | 933 W/m² | - |
| 1777579518 | 18.89° C | 24% | 1019.4 hPa | 0 mm | - | 978 W/m² | - |
| 1777578928 | 18.89° C | 26% | 1019.8 hPa | 0 mm | - | 978 W/m² | - |
| 1777578317 | 18.89° C | 27% | 1019.8 hPa | 0 mm | - | 944 W/m² | - |
| 1777577717 | 18.33° C | 28% | 1020.1 hPa | 0 mm | - | 973 W/m² | - |
| 1777577117 | 18.33° C | 25% | 1019.9 hPa | 0 mm | - | 906 W/m² | - |
* Rain latest hour (hover to see other rain measurements)
** Current wind speed in m/s (hover to see current wind gust speed)